Year,Month,Day,Hour,Minute,Value (Times are PST for temperature in C)
2012,04,08,00,00,3.20
2012,04,08,00,01,3.20
2012,04,08,00,02,3.20
2012,04,08,00,03,3.20
2012,04,08,00,04,3.20
2012,04,08,00,05,3.20
2012,04,08,00,06,3.10
2012,04,08,00,07,3.10
2012,04,08,00,08,3.10
2012,04,08,00,09,3.10
2012,04,08,00,10,3.10
2012,04,08,00,11,3.10
2012,04,08,00,12,3.10
2012,04,08,00,13,3.10
2012,04,08,00,14,3.10
2012,04,08,00,15,3.10
2012,04,08,00,16,3.10
2012,04,08,00,17,3.00
2012,04,08,00,18,3.00
2012,04,08,00,19,3.00
2012,04,08,00,20,3.00
2012,04,08,00,21,3.00
2012,04,08,00,22,3.00
2012,04,08,00,23,3.00
2012,04,08,00,24,2.90
2012,04,08,00,25,2.90
2012,04,08,00,26,2.90
2012,04,08,00,27,2.90
2012,04,08,00,28,2.90
2012,04,08,00,29,2.90
2012,04,08,00,30,2.80
2012,04,08,00,31,2.80
2012,04,08,00,32,2.80
2012,04,08,00,33,2.80
2012,04,08,00,34,2.70
2012,04,08,00,35,2.70
2012,04,08,00,36,2.70
2012,04,08,00,37,2.70
2012,04,08,00,38,2.60
2012,04,08,00,39,2.60
2012,04,08,00,40,2.60
2012,04,08,00,41,2.50
2012,04,08,00,42,2.50
2012,04,08,00,43,2.40
2012,04,08,00,44,2.40
2012,04,08,00,45,2.30
2012,04,08,00,46,2.30
2012,04,08,00,47,2.20
2012,04,08,00,48,2.10
2012,04,08,00,49,2.10
2012,04,08,00,50,2.10
2012,04,08,00,51,2.00
2012,04,08,00,52,2.00
2012,04,08,00,53,2.00
2012,04,08,00,54,2.10
2012,04,08,00,55,2.10
2012,04,08,00,56,2.10
2012,04,08,00,57,2.10
2012,04,08,00,58,2.20
2012,04,08,00,59,2.20
2012,04,08,01,00,2.20
2012,04,08,01,01,2.20
2012,04,08,01,02,2.20
2012,04,08,01,03,2.30
2012,04,08,01,04,2.30
2012,04,08,01,05,2.30
2012,04,08,01,06,2.30
2012,04,08,01,07,2.30
2012,04,08,01,08,2.30
2012,04,08,01,09,2.30
2012,04,08,01,10,2.30
2012,04,08,01,11,2.40
2012,04,08,01,12,2.40
2012,04,08,01,13,2.40
2012,04,08,01,14,2.40
2012,04,08,01,15,2.40
2012,04,08,01,16,2.40
2012,04,08,01,17,2.40
2012,04,08,01,18,2.40
2012,04,08,01,19,2.40
2012,04,08,01,20,2.40
2012,04,08,01,21,2.40
2012,04,08,01,22,2.40
2012,04,08,01,23,2.40
2012,04,08,01,24,2.40
2012,04,08,01,25,2.50
2012,04,08,01,26,2.50
2012,04,08,01,27,2.50
2012,04,08,01,28,2.50
2012,04,08,01,29,2.50
2012,04,08,01,30,2.50
2012,04,08,01,31,2.50
2012,04,08,01,32,2.50
2012,04,08,01,33,2.50
2012,04,08,01,34,2.50
2012,04,08,01,35,2.50
2012,04,08,01,36,2.50
2012,04,08,01,37,2.50
2012,04,08,01,38,2.50
2012,04,08,01,39,2.40
2012,04,08,01,40,2.40
2012,04,08,01,41,2.40
2012,04,08,01,42,2.40
2012,04,08,01,43,2.40
2012,04,08,01,44,2.40
2012,04,08,01,45,2.40
2012,04,08,01,46,2.40
2012,04,08,01,47,2.40
2012,04,08,01,48,2.40
2012,04,08,01,49,2.40
2012,04,08,01,50,2.40
2012,04,08,01,51,2.40
2012,04,08,01,52,2.40
2012,04,08,01,53,2.40
2012,04,08,01,54,2.40
2012,04,08,01,55,2.40
2012,04,08,01,56,2.40
2012,04,08,01,57,2.40
2012,04,08,01,58,2.40
2012,04,08,01,59,2.40
2012,04,08,02,00,2.40
2012,04,08,02,01,2.40
2012,04,08,02,02,2.40
2012,04,08,02,03,2.40
2012,04,08,02,04,2.40
2012,04,08,02,05,2.40
2012,04,08,02,06,2.40
2012,04,08,02,07,2.40
2012,04,08,02,08,2.40
2012,04,08,02,09,2.40
2012,04,08,02,10,2.40
2012,04,08,02,11,2.40
2012,04,08,02,12,2.40
2012,04,08,02,13,2.40
2012,04,08,02,14,2.40
2012,04,08,02,15,2.40
2012,04,08,02,16,2.40
2012,04,08,02,17,2.30
2012,04,08,02,18,2.30
2012,04,08,02,19,2.30
2012,04,08,02,20,2.30
2012,04,08,02,21,2.30
2012,04,08,02,22,2.20
2012,04,08,02,23,2.20
2012,04,08,02,24,2.20
2012,04,08,02,25,2.10
2012,04,08,02,26,2.10
2012,04,08,02,27,2.10
2012,04,08,02,28,2.10
2012,04,08,02,29,2.00
2012,04,08,02,30,2.00
2012,04,08,02,31,2.00
2012,04,08,02,32,1.90
2012,04,08,02,33,1.90
2012,04,08,02,34,1.90
2012,04,08,02,35,1.90
2012,04,08,02,36,1.80
2012,04,08,02,37,1.80
2012,04,08,02,38,1.80
2012,04,08,02,39,1.70
2012,04,08,02,40,1.70
2012,04,08,02,41,1.70
2012,04,08,02,42,1.80
2012,04,08,02,43,1.80
2012,04,08,02,44,1.80
2012,04,08,02,45,1.80
2012,04,08,02,46,1.80
2012,04,08,02,47,1.80
2012,04,08,02,48,1.70
2012,04,08,02,49,1.70
2012,04,08,02,50,1.70
2012,04,08,02,51,1.70
2012,04,08,02,52,1.70
2012,04,08,02,53,1.70
2012,04,08,02,54,1.80
2012,04,08,02,55,1.80
2012,04,08,02,56,1.80
2012,04,08,02,57,1.80
2012,04,08,02,58,1.80
2012,04,08,02,59,1.80
2012,04,08,03,00,1.80
2012,04,08,03,01,1.80
2012,04,08,03,02,1.80
2012,04,08,03,03,1.80
2012,04,08,03,04,1.80
2012,04,08,03,05,1.80
2012,04,08,03,06,1.80
2012,04,08,03,07,1.80
2012,04,08,03,08,1.80
2012,04,08,03,09,1.80
2012,04,08,03,10,1.80
2012,04,08,03,11,1.80
2012,04,08,03,12,1.80
2012,04,08,03,13,1.80
2012,04,08,03,14,1.80
2012,04,08,03,15,1.80
2012,04,08,03,16,1.80
2012,04,08,03,17,1.80
2012,04,08,03,18,1.80
2012,04,08,03,19,1.80
2012,04,08,03,20,1.80
2012,04,08,03,21,1.70
2012,04,08,03,22,1.70
2012,04,08,03,23,1.70
2012,04,08,03,24,1.70
2012,04,08,03,25,1.70
2012,04,08,03,26,1.70
2012,04,08,03,27,1.70
2012,04,08,03,28,1.70
2012,04,08,03,29,1.70
2012,04,08,03,30,1.60
2012,04,08,03,31,1.60
2012,04,08,03,32,1.60
2012,04,08,03,33,1.60
2012,04,08,03,34,1.60
2012,04,08,03,35,1.60
2012,04,08,03,36,1.60
2012,04,08,03,37,1.60
2012,04,08,03,38,1.50
2012,04,08,03,39,1.50
2012,04,08,03,40,1.50
2012,04,08,03,41,1.50
2012,04,08,03,42,1.40
2012,04,08,03,43,1.40
2012,04,08,03,44,1.40
2012,04,08,03,45,1.40
2012,04,08,03,46,1.30
2012,04,08,03,47,1.30
2012,04,08,03,48,1.30
2012,04,08,03,49,1.40
2012,04,08,03,50,1.40
2012,04,08,03,51,1.30
2012,04,08,03,52,1.30
2012,04,08,03,53,1.30
2012,04,08,03,54,1.30
2012,04,08,03,55,1.30
2012,04,08,03,56,1.30
2012,04,08,03,57,1.30
2012,04,08,03,58,1.30
2012,04,08,03,59,1.30
2012,04,08,04,00,1.30
2012,04,08,04,01,1.30
2012,04,08,04,02,1.30
2012,04,08,04,03,1.30
2012,04,08,04,04,1.30
2012,04,08,04,05,1.30
2012,04,08,04,06,1.30
2012,04,08,04,07,1.30
2012,04,08,04,08,1.30
2012,04,08,04,09,1.30
2012,04,08,04,10,1.30
2012,04,08,04,11,1.30
2012,04,08,04,12,1.30
2012,04,08,04,13,1.30
2012,04,08,04,14,1.30
2012,04,08,04,15,1.30
2012,04,08,04,16,1.30
2012,04,08,04,17,1.30
2012,04,08,04,18,1.30
2012,04,08,04,19,1.30
2012,04,08,04,20,1.30
2012,04,08,04,21,1.30
2012,04,08,04,22,1.30
2012,04,08,04,23,1.30
2012,04,08,04,24,1.30
2012,04,08,04,25,1.30
2012,04,08,04,26,1.30
2012,04,08,04,27,1.30
2012,04,08,04,28,1.30
2012,04,08,04,29,1.30
2012,04,08,04,30,1.20
2012,04,08,04,31,1.20
2012,04,08,04,32,1.20
2012,04,08,04,33,1.20
2012,04,08,04,34,1.10
2012,04,08,04,35,1.10
2012,04,08,04,36,1.10
2012,04,08,04,37,1.10
2012,04,08,04,38,1.10
2012,04,08,04,39,1.10
2012,04,08,04,40,1.10
2012,04,08,04,41,1.10
2012,04,08,04,42,1.10
2012,04,08,04,43,1.10
2012,04,08,04,44,1.10
2012,04,08,04,45,1.10
2012,04,08,04,46,1.10
2012,04,08,04,47,1.10
2012,04,08,04,48,1.10
2012,04,08,04,49,1.20
2012,04,08,04,50,1.20
2012,04,08,04,51,1.20
2012,04,08,04,52,1.20
2012,04,08,04,53,1.20
2012,04,08,04,54,1.20
2012,04,08,04,55,1.30
2012,04,08,04,56,1.30
2012,04,08,04,57,1.30
2012,04,08,04,58,1.30
2012,04,08,04,59,1.30
2012,04,08,05,00,1.30
2012,04,08,05,01,1.30
2012,04,08,05,02,1.30
2012,04,08,05,03,1.30
2012,04,08,05,04,1.30
2012,04,08,05,05,1.30
2012,04,08,05,06,1.30
2012,04,08,05,07,1.30
2012,04,08,05,08,1.30
2012,04,08,05,09,1.30
2012,04,08,05,10,1.30
2012,04,08,05,11,1.30
2012,04,08,05,12,1.30
2012,04,08,05,13,1.30
2012,04,08,05,14,1.30
2012,04,08,05,15,1.30
2012,04,08,05,16,1.30
2012,04,08,05,17,1.30
2012,04,08,05,18,1.30
2012,04,08,05,19,1.30
2012,04,08,05,20,1.30
2012,04,08,05,21,1.30
2012,04,08,05,22,1.30
2012,04,08,05,23,1.30
2012,04,08,05,24,1.30
2012,04,08,05,25,1.30
2012,04,08,05,26,1.30
2012,04,08,05,27,1.30
2012,04,08,05,28,1.30
2012,04,08,05,29,1.30
2012,04,08,05,30,1.30
2012,04,08,05,31,1.30
2012,04,08,05,32,1.30
2012,04,08,05,33,1.30
2012,04,08,05,34,1.30
2012,04,08,05,35,1.30
2012,04,08,05,36,1.30
2012,04,08,05,37,1.30
2012,04,08,05,38,1.30
2012,04,08,05,39,1.30
2012,04,08,05,40,1.30
2012,04,08,05,41,1.30
2012,04,08,05,42,1.30
2012,04,08,05,43,1.30
2012,04,08,05,44,1.30
2012,04,08,05,45,1.30
2012,04,08,05,46,1.30
2012,04,08,05,47,1.30
2012,04,08,05,48,1.30
2012,04,08,05,49,1.30
2012,04,08,05,50,1.30
2012,04,08,05,51,1.30
2012,04,08,05,52,1.30
2012,04,08,05,53,1.30
2012,04,08,05,54,1.30
2012,04,08,05,55,1.30
2012,04,08,05,56,1.30
2012,04,08,05,57,1.30
2012,04,08,05,58,1.30
2012,04,08,05,59,1.30
2012,04,08,06,00,1.30
2012,04,08,06,01,1.30
2012,04,08,06,02,1.30
2012,04,08,06,03,1.30
2012,04,08,06,04,1.30
2012,04,08,06,05,1.30
2012,04,08,06,06,1.30
2012,04,08,06,07,1.30
2012,04,08,06,08,1.30
2012,04,08,06,09,1.30
2012,04,08,06,10,1.30
2012,04,08,06,11,1.30
2012,04,08,06,12,1.30
2012,04,08,06,13,1.30
2012,04,08,06,14,1.30
2012,04,08,06,15,1.30
2012,04,08,06,16,1.30
2012,04,08,06,17,1.30
2012,04,08,06,18,1.30
2012,04,08,06,19,1.30
2012,04,08,06,20,1.30
2012,04,08,06,21,1.30
2012,04,08,06,22,1.30
2012,04,08,06,23,1.30
2012,04,08,06,24,1.30
2012,04,08,06,25,1.30
2012,04,08,06,26,1.30
2012,04,08,06,27,1.30
2012,04,08,06,28,1.30
2012,04,08,06,29,1.30
2012,04,08,06,30,1.30
2012,04,08,06,31,1.30
2012,04,08,06,32,1.30
2012,04,08,06,33,1.30
2012,04,08,06,34,1.30
2012,04,08,06,35,1.30
2012,04,08,06,36,1.30
2012,04,08,06,37,1.30
2012,04,08,06,38,1.30
2012,04,08,06,39,1.30
2012,04,08,06,40,1.30
2012,04,08,06,41,1.30
2012,04,08,06,42,1.30
2012,04,08,06,43,1.30
2012,04,08,06,44,1.30
2012,04,08,06,45,1.30
2012,04,08,06,46,1.30
2012,04,08,06,47,1.30
2012,04,08,06,48,1.30
2012,04,08,06,49,1.30
2012,04,08,06,50,1.30
2012,04,08,06,51,1.30
2012,04,08,06,52,1.30
2012,04,08,06,53,1.30
2012,04,08,06,54,1.30
2012,04,08,06,55,1.40
2012,04,08,06,56,1.40
2012,04,08,06,57,1.40
2012,04,08,06,58,1.40
2012,04,08,06,59,1.40
2012,04,08,07,00,1.40
2012,04,08,07,01,1.40
2012,04,08,07,02,1.50
2012,04,08,07,03,1.50
2012,04,08,07,04,1.50
2012,04,08,07,05,1.60
2012,04,08,07,06,1.60
2012,04,08,07,07,1.60
2012,04,08,07,08,1.60
2012,04,08,07,09,1.60
2012,04,08,07,10,1.60
2012,04,08,07,11,1.70
2012,04,08,07,12,1.70
2012,04,08,07,13,1.70
2012,04,08,07,14,1.70
2012,04,08,07,15,1.80
2012,04,08,07,16,1.80
2012,04,08,07,17,1.80
2012,04,08,07,18,1.80
2012,04,08,07,19,1.90
2012,04,08,07,20,1.90
2012,04,08,07,21,1.90
2012,04,08,07,22,1.90
2012,04,08,07,23,2.00
2012,04,08,07,24,2.00
2012,04,08,07,25,2.10
2012,04,08,07,26,2.10
2012,04,08,07,27,2.10
2012,04,08,07,28,2.10
2012,04,08,07,29,2.20
2012,04,08,07,30,2.20
2012,04,08,07,31,2.20
2012,04,08,07,32,2.30
2012,04,08,07,33,2.30
2012,04,08,07,34,2.40
2012,04,08,07,35,2.40
2012,04,08,07,36,2.40
2012,04,08,07,37,2.40
2012,04,08,07,38,2.50
2012,04,08,07,39,2.50
2012,04,08,07,40,2.60
2012,04,08,07,41,2.60
2012,04,08,07,42,2.60
2012,04,08,07,43,2.70
2012,04,08,07,44,2.70
2012,04,08,07,45,2.70
2012,04,08,07,46,2.70
2012,04,08,07,47,2.70
2012,04,08,07,48,2.70
2012,04,08,07,49,2.80
2012,04,08,07,50,2.80
2012,04,08,07,51,2.80
2012,04,08,07,52,2.80
2012,04,08,07,53,2.80
2012,04,08,07,54,2.80
2012,04,08,07,55,2.80
2012,04,08,07,56,2.80
2012,04,08,07,57,2.80
2012,04,08,07,58,2.80
2012,04,08,07,59,2.80
2012,04,08,08,00,2.80
2012,04,08,08,01,2.80
2012,04,08,08,02,2.80
2012,04,08,08,03,2.80
2012,04,08,08,04,2.80
2012,04,08,08,05,2.80
2012,04,08,08,06,2.80
2012,04,08,08,07,2.80
2012,04,08,08,08,2.80
2012,04,08,08,09,2.80
2012,04,08,08,10,2.90
2012,04,08,08,11,2.90
2012,04,08,08,12,2.90
2012,04,08,08,13,2.90
2012,04,08,08,14,2.90
2012,04,08,08,15,3.00
2012,04,08,08,16,3.00
2012,04,08,08,17,3.00
2012,04,08,08,18,3.10
2012,04,08,08,19,3.10
2012,04,08,08,20,3.20
2012,04,08,08,21,3.20
2012,04,08,08,22,3.20
2012,04,08,08,23,3.30
2012,04,08,08,24,3.30
2012,04,08,08,25,3.30
2012,04,08,08,26,3.30
2012,04,08,08,27,3.40
2012,04,08,08,28,3.40
2012,04,08,08,29,3.40
2012,04,08,08,30,3.50
2012,04,08,08,31,3.50
2012,04,08,08,32,3.50
2012,04,08,08,33,3.50
2012,04,08,08,34,3.60
2012,04,08,08,35,3.60
2012,04,08,08,36,3.60
2012,04,08,08,37,3.70
2012,04,08,08,38,3.70
2012,04,08,08,39,3.70
2012,04,08,08,40,3.70
2012,04,08,08,41,3.80
2012,04,08,08,42,3.80
2012,04,08,08,43,3.80
2012,04,08,08,44,3.80
2012,04,08,08,45,3.90
2012,04,08,08,46,3.90
2012,04,08,08,47,3.90
2012,04,08,08,48,3.90
2012,04,08,08,49,3.90
2012,04,08,08,50,4.00
2012,04,08,08,51,4.00
2012,04,08,08,52,4.00
2012,04,08,08,53,4.10
2012,04,08,08,54,4.10
2012,04,08,08,55,4.10
2012,04,08,08,56,4.10
2012,04,08,08,57,4.20
2012,04,08,08,58,4.20
2012,04,08,08,59,4.20
2012,04,08,09,00,4.20
2012,04,08,09,01,4.20
2012,04,08,09,02,4.30
2012,04,08,09,03,4.30
2012,04,08,09,04,4.30
2012,04,08,09,05,4.30
2012,04,08,09,06,4.30
2012,04,08,09,07,4.40
2012,04,08,09,08,4.40
2012,04,08,09,09,4.40
2012,04,08,09,10,4.40
2012,04,08,09,11,4.40
2012,04,08,09,12,4.50
2012,04,08,09,13,4.50
2012,04,08,09,14,4.50
2012,04,08,09,15,4.60
2012,04,08,09,16,4.60
2012,04,08,09,17,4.60
2012,04,08,09,18,4.70
2012,04,08,09,19,4.70
2012,04,08,09,20,4.70
2012,04,08,09,21,4.80
2012,04,08,09,22,4.80
2012,04,08,09,23,4.80
2012,04,08,09,24,4.90
2012,04,08,09,25,4.90
2012,04,08,09,26,5.00
2012,04,08,09,27,5.00
2012,04,08,09,28,5.10
2012,04,08,09,29,5.10
2012,04,08,09,30,5.10
2012,04,08,09,31,5.20
2012,04,08,09,32,5.20
2012,04,08,09,33,5.30
2012,04,08,09,34,5.30
2012,04,08,09,35,5.30
2012,04,08,09,36,5.40
2012,04,08,09,37,5.40
2012,04,08,09,38,5.40
2012,04,08,09,39,5.50
2012,04,08,09,40,5.50
2012,04,08,09,41,5.50
2012,04,08,09,42,5.60
2012,04,08,09,43,5.60
2012,04,08,09,44,5.60
2012,04,08,09,45,5.70
2012,04,08,09,46,5.70
2012,04,08,09,47,5.80
2012,04,08,09,48,5.80
2012,04,08,09,49,5.90
2012,04,08,09,50,5.90
2012,04,08,09,51,5.90
2012,04,08,09,52,6.00
2012,04,08,09,53,6.10
2012,04,08,09,54,6.10
2012,04,08,09,55,6.20
2012,04,08,09,56,6.20
2012,04,08,09,57,6.30
2012,04,08,09,58,6.40
2012,04,08,09,59,6.50
2012,04,08,10,00,6.50
2012,04,08,10,01,6.60
2012,04,08,10,02,6.70
2012,04,08,10,03,6.70
2012,04,08,10,04,6.80
2012,04,08,10,05,6.90
2012,04,08,10,06,7.00
2012,04,08,10,07,7.10
2012,04,08,10,08,7.10
2012,04,08,10,09,7.20
2012,04,08,10,10,7.20
2012,04,08,10,11,7.30
2012,04,08,10,12,7.40
2012,04,08,10,13,7.50
2012,04,08,10,14,7.50
2012,04,08,10,15,7.60
2012,04,08,10,16,7.60
2012,04,08,10,17,7.70
2012,04,08,10,18,7.70
2012,04,08,10,19,7.80
2012,04,08,10,20,7.80
2012,04,08,10,21,7.80
2012,04,08,10,22,7.90
2012,04,08,10,23,7.90
2012,04,08,10,24,7.90
2012,04,08,10,25,7.90
2012,04,08,10,26,8.00
2012,04,08,10,27,8.00
2012,04,08,10,28,8.10
2012,04,08,10,29,8.10
2012,04,08,10,30,8.10
2012,04,08,10,31,8.10
2012,04,08,10,32,8.10
2012,04,08,10,33,8.10
2012,04,08,10,34,8.10
2012,04,08,10,35,8.10
2012,04,08,10,36,8.10
2012,04,08,10,37,8.10
2012,04,08,10,38,8.10
2012,04,08,10,39,8.20
2012,04,08,10,40,8.20
2012,04,08,10,41,8.20
2012,04,08,10,42,8.20
2012,04,08,10,43,8.20
2012,04,08,10,44,8.20
2012,04,08,10,45,8.30
2012,04,08,10,46,8.30
2012,04,08,10,47,8.30
2012,04,08,10,48,8.40
2012,04,08,10,49,8.40
2012,04,08,10,50,8.40
2012,04,08,10,51,8.50
2012,04,08,10,52,8.50
2012,04,08,10,53,8.50
2012,04,08,10,54,8.50
2012,04,08,10,55,8.60
2012,04,08,10,56,8.60
2012,04,08,10,57,8.60
2012,04,08,10,58,8.60
2012,04,08,10,59,8.60
2012,04,08,11,00,8.60
2012,04,08,11,01,8.60
2012,04,08,11,02,8.60
2012,04,08,11,03,8.60
2012,04,08,11,04,8.60
2012,04,08,11,05,8.60
2012,04,08,11,06,8.60
2012,04,08,11,07,8.70
2012,04,08,11,08,8.70
2012,04,08,11,09,8.70
2012,04,08,11,10,8.80
2012,04,08,11,11,8.80
2012,04,08,11,12,8.80
2012,04,08,11,13,8.80
2012,04,08,11,14,8.80
2012,04,08,11,15,8.80
2012,04,08,11,16,8.80
2012,04,08,11,17,8.80
2012,04,08,11,18,8.80
2012,04,08,11,19,8.70
2012,04,08,11,20,8.70
2012,04,08,11,21,8.60
2012,04,08,11,22,8.60
2012,04,08,11,23,8.60
2012,04,08,11,24,8.60
2012,04,08,11,25,8.60
2012,04,08,11,26,8.60
2012,04,08,11,27,8.70
2012,04,08,11,28,8.60
2012,04,08,11,29,8.60
2012,04,08,11,30,8.70
2012,04,08,11,31,8.70
2012,04,08,11,32,8.70
2012,04,08,11,33,8.70
2012,04,08,11,34,8.70
2012,04,08,11,35,8.70
2012,04,08,11,36,8.70
2012,04,08,11,37,8.70
2012,04,08,11,38,8.70
2012,04,08,11,39,8.70
2012,04,08,11,40,8.60
2012,04,08,11,41,8.60
2012,04,08,11,42,8.60
2012,04,08,11,43,8.60
2012,04,08,11,44,8.60
2012,04,08,11,45,8.60
2012,04,08,11,46,8.60
2012,04,08,11,47,8.60
2012,04,08,11,48,8.60
2012,04,08,11,49,8.60
2012,04,08,11,50,8.70
2012,04,08,11,51,8.70
2012,04,08,11,52,8.80
2012,04,08,11,53,8.80
2012,04,08,11,54,8.80
2012,04,08,11,55,8.80
2012,04,08,11,56,8.80
2012,04,08,11,57,8.90
2012,04,08,11,58,8.90
2012,04,08,11,59,9.00
2012,04,08,12,00,9.10
2012,04,08,12,01,9.10
2012,04,08,12,02,9.10
2012,04,08,12,03,9.20
2012,04,08,12,04,9.20
2012,04,08,12,05,9.20
2012,04,08,12,06,9.20
2012,04,08,12,07,9.20
2012,04,08,12,08,9.20
2012,04,08,12,09,9.30
2012,04,08,12,10,9.30
2012,04,08,12,11,9.30
2012,04,08,12,12,9.30
2012,04,08,12,13,9.30
2012,04,08,12,14,9.30
2012,04,08,12,15,9.40
2012,04,08,12,16,9.40
2012,04,08,12,17,9.40
2012,04,08,12,18,9.40
2012,04,08,12,19,9.40
2012,04,08,12,20,9.40
2012,04,08,12,21,9.30
2012,04,08,12,22,9.30
2012,04,08,12,23,9.30
2012,04,08,12,24,9.30
2012,04,08,12,25,9.30
2012,04,08,12,26,9.30
2012,04,08,12,27,9.40
2012,04,08,12,28,9.40
2012,04,08,12,29,9.40
2012,04,08,12,30,9.40
2012,04,08,12,31,9.40
2012,04,08,12,32,9.40
2012,04,08,12,33,9.40
2012,04,08,12,34,9.30
2012,04,08,12,35,9.30
2012,04,08,12,36,9.20
2012,04,08,12,37,9.20
2012,04,08,12,38,9.10
2012,04,08,12,39,9.10
2012,04,08,12,40,9.00
2012,04,08,12,41,9.00
2012,04,08,12,42,8.90
2012,04,08,12,43,8.90
2012,04,08,12,44,8.90
2012,04,08,12,45,8.90
2012,04,08,12,46,8.90
2012,04,08,12,47,8.90
2012,04,08,12,48,8.90
2012,04,08,12,49,8.80
2012,04,08,12,50,8.80
2012,04,08,12,51,8.90
2012,04,08,12,52,8.90
2012,04,08,12,53,8.80
2012,04,08,12,54,8.80
2012,04,08,12,55,8.80
2012,04,08,12,56,8.80
2012,04,08,12,57,8.80
2012,04,08,12,58,8.80
2012,04,08,12,59,8.80
2012,04,08,13,00,8.80
2012,04,08,13,01,8.80
2012,04,08,13,02,8.80
2012,04,08,13,03,8.70
2012,04,08,13,04,8.70
2012,04,08,13,05,8.70
2012,04,08,13,06,8.70
2012,04,08,13,07,8.60
2012,04,08,13,08,8.60
2012,04,08,13,09,8.60
2012,04,08,13,10,8.60
2012,04,08,13,11,8.50
2012,04,08,13,12,8.50
2012,04,08,13,13,8.50
2012,04,08,13,14,8.40
2012,04,08,13,15,8.40
2012,04,08,13,16,8.40
2012,04,08,13,17,8.50
2012,04,08,13,18,8.50
2012,04,08,13,19,8.50
2012,04,08,13,20,8.50
2012,04,08,13,21,8.50
2012,04,08,13,22,8.60
2012,04,08,13,23,8.60
2012,04,08,13,24,8.60
2012,04,08,13,25,8.60
2012,04,08,13,26,8.60
2012,04,08,13,27,8.50
2012,04,08,13,28,8.50
2012,04,08,13,29,8.50
2012,04,08,13,30,8.50
2012,04,08,13,31,8.40
2012,04,08,13,32,8.40
2012,04,08,13,33,8.40
2012,04,08,13,34,8.40
2012,04,08,13,35,8.40
2012,04,08,13,36,8.40
2012,04,08,13,37,8.40
2012,04,08,13,38,8.40
2012,04,08,13,39,8.40
2012,04,08,13,40,8.40
2012,04,08,13,41,8.40
2012,04,08,13,42,8.40
2012,04,08,13,43,8.40
2012,04,08,13,44,8.50
2012,04,08,13,45,8.50
2012,04,08,13,46,8.50
2012,04,08,13,47,8.50
2012,04,08,13,48,8.50
2012,04,08,13,49,8.60
2012,04,08,13,50,8.60
2012,04,08,13,51,8.50
2012,04,08,13,52,8.50
2012,04,08,13,53,8.50
2012,04,08,13,54,8.60
2012,04,08,13,55,8.60
2012,04,08,13,56,8.60
2012,04,08,13,57,8.60
2012,04,08,13,58,8.70
2012,04,08,13,59,8.70
2012,04,08,14,00,8.70
2012,04,08,14,01,8.70
2012,04,08,14,02,8.80
2012,04,08,14,03,8.80
2012,04,08,14,04,8.80
2012,04,08,14,05,8.80
2012,04,08,14,06,8.80
2012,04,08,14,07,8.80
2012,04,08,14,08,8.80
2012,04,08,14,09,8.80
2012,04,08,14,10,8.80
2012,04,08,14,11,8.80
2012,04,08,14,12,8.80
2012,04,08,14,13,8.80
2012,04,08,14,14,8.80
2012,04,08,14,15,8.80
2012,04,08,14,16,8.80
2012,04,08,14,17,8.80
2012,04,08,14,18,8.80
2012,04,08,14,19,8.80
2012,04,08,14,20,8.80
2012,04,08,14,21,8.90
2012,04,08,14,22,8.80
2012,04,08,14,23,8.80
2012,04,08,14,24,8.80
2012,04,08,14,25,8.90
2012,04,08,14,26,8.80
2012,04,08,14,27,8.80
2012,04,08,14,28,8.80
2012,04,08,14,29,8.80
2012,04,08,14,30,8.80
2012,04,08,14,31,8.80
2012,04,08,14,32,8.80
2012,04,08,14,33,8.80
2012,04,08,14,34,8.80
2012,04,08,14,35,8.80
2012,04,08,14,36,8.80
2012,04,08,14,37,8.80
2012,04,08,14,38,8.70
2012,04,08,14,39,8.70
2012,04,08,14,40,8.70
2012,04,08,14,41,8.70
2012,04,08,14,42,8.70
2012,04,08,14,43,8.70
2012,04,08,14,44,8.70
2012,04,08,14,45,8.70
2012,04,08,14,46,8.70
2012,04,08,14,47,8.70
2012,04,08,14,48,8.80
2012,04,08,14,49,8.80
2012,04,08,14,50,8.80
2012,04,08,14,51,8.80
2012,04,08,14,52,8.80
2012,04,08,14,53,8.80
2012,04,08,14,54,8.80
2012,04,08,14,55,8.80
2012,04,08,14,56,8.90
2012,04,08,14,57,8.90
2012,04,08,14,58,8.90
2012,04,08,14,59,8.90
2012,04,08,15,00,9.00
2012,04,08,15,01,9.00
2012,04,08,15,02,9.10
2012,04,08,15,03,9.10
2012,04,08,15,04,9.10
2012,04,08,15,05,9.10
2012,04,08,15,06,9.20
2012,04,08,15,07,9.20
2012,04,08,15,08,9.30
2012,04,08,15,09,9.30
2012,04,08,15,10,9.40
2012,04,08,15,11,9.40
2012,04,08,15,12,9.50
2012,04,08,15,13,9.50
2012,04,08,15,14,9.60
2012,04,08,15,15,9.60
2012,04,08,15,16,9.60
2012,04,08,15,17,9.60
2012,04,08,15,18,9.70
2012,04,08,15,19,9.70
2012,04,08,15,20,9.70
2012,04,08,15,21,9.70
2012,04,08,15,22,9.70
2012,04,08,15,23,9.70
2012,04,08,15,24,9.70
2012,04,08,15,25,9.80
2012,04,08,15,26,9.80
2012,04,08,15,27,9.90
2012,04,08,15,28,9.90
2012,04,08,15,29,9.90
2012,04,08,15,30,9.90
2012,04,08,15,31,10.00
2012,04,08,15,32,10.00
2012,04,08,15,33,10.10
2012,04,08,15,34,10.10
2012,04,08,15,35,10.10
2012,04,08,15,36,10.10
2012,04,08,15,37,10.10
2012,04,08,15,38,10.20
2012,04,08,15,39,10.20
2012,04,08,15,40,10.30
2012,04,08,15,41,10.30
2012,04,08,15,42,10.30
2012,04,08,15,43,10.30
2012,04,08,15,44,10.30
2012,04,08,15,45,10.30
2012,04,08,15,46,10.30
2012,04,08,15,47,10.40
2012,04,08,15,48,10.40
2012,04,08,15,49,10.30
2012,04,08,15,50,10.30
2012,04,08,15,51,10.30
2012,04,08,15,52,10.30
2012,04,08,15,53,10.30
2012,04,08,15,54,10.20
2012,04,08,15,55,10.20
2012,04,08,15,56,10.20
2012,04,08,15,57,10.20
2012,04,08,15,58,10.20
2012,04,08,15,59,10.10
2012,04,08,16,00,10.10
2012,04,08,16,01,10.10
2012,04,08,16,02,10.10
2012,04,08,16,03,10.10
2012,04,08,16,04,10.20
2012,04,08,16,05,10.20
2012,04,08,16,06,10.20
2012,04,08,16,07,10.20
2012,04,08,16,08,10.30
2012,04,08,16,09,10.30
2012,04,08,16,10,10.30
2012,04,08,16,11,10.40
2012,04,08,16,12,10.40
2012,04,08,16,13,10.50
2012,04,08,16,14,10.50
2012,04,08,16,15,10.50
2012,04,08,16,16,10.50
2012,04,08,16,17,10.50
2012,04,08,16,18,10.50
2012,04,08,16,19,10.60
2012,04,08,16,20,10.60
2012,04,08,16,21,10.60
2012,04,08,16,22,10.60
2012,04,08,16,23,10.60
2012,04,08,16,24,10.60
2012,04,08,16,25,10.60
2012,04,08,16,26,10.60
2012,04,08,16,27,10.60
2012,04,08,16,28,10.60
2012,04,08,16,29,10.60
2012,04,08,16,30,10.60
2012,04,08,16,31,10.60
2012,04,08,16,32,10.60
2012,04,08,16,33,10.70
2012,04,08,16,34,10.70
2012,04,08,16,35,10.70
2012,04,08,16,36,10.70
2012,04,08,16,37,10.70
2012,04,08,16,38,10.70
2012,04,08,16,39,10.70
2012,04,08,16,40,10.70
2012,04,08,16,41,10.70
2012,04,08,16,42,10.70
2012,04,08,16,43,10.70
2012,04,08,16,44,10.70
2012,04,08,16,45,10.70
2012,04,08,16,46,10.70
2012,04,08,16,47,10.70
2012,04,08,16,48,10.70
2012,04,08,16,49,10.70
2012,04,08,16,50,10.70
2012,04,08,16,51,10.70
2012,04,08,16,52,10.70
2012,04,08,16,53,10.70
2012,04,08,16,54,10.60
2012,04,08,16,55,10.70
2012,04,08,16,56,10.70
2012,04,08,16,57,10.70
2012,04,08,16,58,10.70
2012,04,08,16,59,10.70
2012,04,08,17,00,10.70
2012,04,08,17,01,10.70
2012,04,08,17,02,10.60
2012,04,08,17,03,10.60
2012,04,08,17,04,10.60
2012,04,08,17,05,10.60
2012,04,08,17,06,10.60
2012,04,08,17,07,10.60
2012,04,08,17,08,10.60
2012,04,08,17,09,10.60
2012,04,08,17,10,10.60
2012,04,08,17,11,10.60
2012,04,08,17,12,10.60
2012,04,08,17,13,10.70
2012,04,08,17,14,10.70
2012,04,08,17,15,10.70
2012,04,08,17,16,10.70
2012,04,08,17,17,10.70
2012,04,08,17,18,10.70
2012,04,08,17,19,10.70
2012,04,08,17,20,10.70
2012,04,08,17,21,10.70
2012,04,08,17,22,10.70
2012,04,08,17,23,10.70
2012,04,08,17,24,10.70
2012,04,08,17,25,10.70
2012,04,08,17,26,10.70
2012,04,08,17,27,10.70
2012,04,08,17,28,10.80
2012,04,08,17,29,10.80
2012,04,08,17,30,10.80
2012,04,08,17,31,10.80
2012,04,08,17,32,10.80
2012,04,08,17,33,10.80
2012,04,08,17,34,10.80
2012,04,08,17,35,10.80
2012,04,08,17,36,10.80
2012,04,08,17,37,10.80
2012,04,08,17,38,10.80
2012,04,08,17,39,10.80
2012,04,08,17,40,10.80
2012,04,08,17,41,10.80
2012,04,08,17,42,10.80
2012,04,08,17,43,10.70
2012,04,08,17,44,10.70
2012,04,08,17,45,10.70
2012,04,08,17,46,10.60
2012,04,08,17,47,10.60
2012,04,08,17,48,10.60
2012,04,08,17,49,10.60
2012,04,08,17,50,10.60
2012,04,08,17,51,10.60
2012,04,08,17,52,10.60
2012,04,08,17,53,10.60
2012,04,08,17,54,10.60
2012,04,08,17,55,10.60
2012,04,08,17,56,10.70
2012,04,08,17,57,10.70
2012,04,08,17,58,10.60
2012,04,08,17,59,10.60